This demonstration page uses our WeatherBlox Daily Observations layout. Learn more.

Left ArrowRight Arrow

38.83388, -104.82136

Hourly Observations for April 18, 2022

Temp ( °F °C ) Dew Point ( °F °C ) Humidity (%) Winds ( mph kmh ) Pressure ( in mb ) Visibility ( mi km ) Precip ( " mm )
12:58 am 00:58 Clear 42 5.7 22 -5.3 45 45 SE 6 9 29.92 1013 10 16 0.00 0.00
1:58 am 01:58 Clear 40 4.5 22 -5.6 48 48 WSW 7 11 29.92 1013 10 16 0.00 0.00
2:58 am 02:58 Clear N/A N/A N/A undefined N/A N/A 10 16 0.00 0.00
3:58 am 03:58 Clear 35 1.4 20 -6.7 55 55 E 7 11 29.90 1012 10 16 0.00 0.00
4:58 am 04:58 Clear 33 0.4 18 -7.8 55 55 ESE 7 11 29.88 1012 10 16 0.00 0.00
5:58 am 05:58 undefined 32 0.1 19 -7.2 58 58 E 8 13 29.89 1012 10 16 0.00 0.00
6:58 am 06:58 Sunny 33 0.3 19 -7.2 58 58 ESE 16 26 29.93 1014 10 16 0.00 0.00
7:58 am 07:58 Sunny 33 0.6 18 -7.6 55 55 N 5 7 30.02 1017 10 16 0.00 0.00
8:58 am 08:58 Sunny 37 2.6 20 -6.8 50 50 E 8 13 30.02 1017 10 16 0.00 0.00
9:58 am 09:58 Sunny 41 5.1 20 -6.8 42 42 E 16 26 30.00 1016 10 16 0.00 0.00
10:58 am 10:58 Sunny 44 6.4 20 -6.6 39 39 ENE 21 33 30.00 1016 10 16 0.00 0.00
11:58 am 11:58 Sunny 45 7 20 -6.7 37 37 E 22 35 29.99 1016 10 16 0.00 0.00
12:58 pm 12:58 Sunny 47 8.3 21 -6.3 35 35 E 18 30 29.98 1015 10 16 0.00 0.00
1:58 pm 13:58 Sunny 48 9.1 21 -5.9 34 34 E 25 41 29.97 1015 10 16 0.00 0.00
2:58 pm 14:58 Sunny 52 10.9 22 -5.6 31 31 E 20 31 29.96 1015 10 16 0.00 0.00
3:58 pm 15:58 Sunny 51 10.5 23 -5.1 33 33 E 21 33 29.95 1014 10 16 0.00 0.00
4:58 pm 16:58 Sunny 50 10.2 23 -5 34 34 E 22 35 29.95 1014 10 16 0.00 0.00
5:58 pm 17:58 Sunny 49 9.4 24 -4.6 37 37 E 18 30 29.91 1013 10 16 0.00 0.00
6:58 pm 18:58 Sunny 48 9 26 -3.2 42 42 ESE 14 22 29.90 1012 10 16 0.00 0.00
7:58 pm 19:58 Mostly Clear 46 7.7 28 -2.1 50 50 E 12 19 29.89 1012 10 16 0.00 0.00
8:58 pm 20:58 Clear 44 6.6 31 -0.8 60 60 E 7 11 29.84 1011 10 16 0.00 0.00
9:58 pm 21:58 Mostly Clear 43 6.1 31 -0.6 63 63 NNW 3 6 29.81 1010 10 16 0.00 0.00
10:58 pm 22:58 Clear 41 5.2 32 -0.2 68 68 WSW 5 7 29.78 1009 10 16 0.00 0.00
11:58 pm 23:58 Clear 40 4.6 32 -0.2 71 71 W 7 11 29.75 1008 10 16 0.00 0.00

Powered by AerisWeather